METEOR 2-17 DEB, 28991

Orbit data source: Space-Track

METEOR 2-17 DEB, 28991 is space debris in LEO originally from a launch on Sat, 30 Jan 1988 UTC launched from the Plesetsk Missile And Space Complex (PKMTR). Debris objects in space refer to the collection of defunct objects orbiting the Earth. Examples of debris include non-operational satellites, rocket bodies, and fragments generated from explosions, collisions, or faulty payload assembly.

Loading next visibility...
Identifier
28991, 1988-005F
Orbit
LEO
Country
Flag of CISCIS
Related business
Manufacturer
Unknown
Mission
Spacecraft
Bus & Motor
Unknown
Mass
Unknown
Launch date (UTC)
1988-01-30 (38 years ago)
Launch vehicle
Unknown
Launch site
Plesetsk Missile And Space Complex (PKMTR)
Object type
Payload
Rocket body
Debris
Shape & HBR
Unknown shape, 0.1 m
Radar Cross Section
Small (<0.1 m²)

Expand to show TLE details & history
Last TLE update: 2 days ago

TLE from 2 days ago
0 METEOR 2-17 DEB
1 28991U 88005F   25305.64518845  .00003970  00000-0  22998-2 0  9997
2 28991  82.5198  50.9187 0027063 201.4095 225.4983 14.08460354 33906
Epoch: 2025-11-01T15:29Z
TLE epoch observation values (Epoch: 2025-11-01T15:29:04.282Z)
Latitude
65.66606°
Longitude
154.26566°
Altitude
889.755 km
Speed
7.406 km/s
True Right ascension
04h 30m 49s
True Declination
65° 32' 20"
Sunlit
Object was in full shadow at epoch
Visualization orbit readout
Latitude
Unknown
Longitude
Unknown
Altitude
Unknown
Speed
Unknown
Apparent Right ascension
Unknown
Apparent Declination
Unknown
Sunlit
N/A
Visualization observer readout
Local Sidereal Time
07:27:15
Azimuth
Unknown
Elevation
Unknown
Doppler factor
Unknown
Orbital elements
Apogee altitude
881.358 km
Perigee altitude
842.171 km
Semi-major axis
7,239.902 km
Eccentricity
0.00271
Inclination
82.5198°
RAAN
50.9187°
Arg. of periapsis
201.4095°
True anomaly
225.27764°
Mean anomaly
225.4983°
Eccentric anomaly
225.38792°
Mean motion
3.52326 °/min
Orbital period
102.18 mins
BSTAR
0.0022998
Loading maneuver chart data...
Computing Atmospheric mass density...
Loading historical data...
Loading historical data...
Loading historical data...
Loading historical data...
Loading historical data...
Loading historical data...
Loading historical data...

Documentation

Showing up to 5 results
|